Curacao Island, Netherlands

8:51 PM AST on February 23, 2017 (GMT -0400)
Willemstad-Hato International

Weather History for TNCC - March, 2013

Change the Weather History Date:

Friday, March 22, 2013

  Actual Average Record
Temperature  
Mean Temperature 82 °F -  
Max Temperature 87 °F 85 °F 90 °F (2016)
Min Temperature 77 °F 78 °F 73 °F (2003)
Cooling Degree Days 17    
Growing Degree Days 32 (Base 50)    
Moisture  
Dew Point 75 °F    
Average Humidity 78    
Maximum Humidity 89    
Minimum Humidity 65    
Precipitation  
Precipitation 0.00 in - - ()
Sea Level Pressure  
Sea Level Pressure 29.90 in    
Wind  
Wind Speed 8 mph ()    
Max Wind Speed 13 mph    
Max Gust Speed -    
Visibility 7.9 miles    
Events      
Averages and records for this station are not official NWS values.
T = Trace of Precipitation, MM = Missing Value Source: Averaged Metar Reports

Daily Weather History Graph

Daily Weather History Graph

Search for Another Location

Airport or City:

Trip Planner

Search our weather history database for the weather conditions in past years. The results will help you decide how hot, cold, wet, or windy it might be!

Date:

Astronomy

Mar. 22, 2013 Rise Set
Actual Time 6:38 AM AST 6:46 PM AST
Civil Twilight 6:17 AM AST 7:07 PM AST
Nautical Twilight 5:52 AM AST 7:32 PM AST
Astronomical Twilight 5:28 AM AST 7:57 PM AST
Moon 2:51 PM AST (3/22) 2:53 AM AST (3/22)
Length of Visible Light 12h 50m
Length of Day
12h 08m
Waxing Gibbous, 77% of the Moon is Illuminated
Mar 22
Waxing Gibbous
Mar 27
Full
Apr 3
Last Quarter
Apr 10
New
Apr 18
First Quarter

Hourly Weather History & Observations

Time (AST) Temp. Heat Index Dew Point Humidity Pressure Visibility Wind Dir Wind Speed Gust Speed Precip Events Conditions
12:00 AM 80.6 °F 86.2 °F 75.2 °F 84% 29.89 in 6.2 mi East 10.4 mph - N/A   Scattered Clouds
1:00 AM 78.8 °F - 73.4 °F 83% 29.86 in 6.2 mi East 9.2 mph - N/A   Scattered Clouds
2:00 AM 79 °F - 74 °F 81% 29.86 in 16 mi East 9.2 mph - -   Partly Cloudy
2:00 AM 78.8 °F - 73.4 °F 83% 29.86 in 6.2 mi East 9.2 mph - N/A   Scattered Clouds
3:00 AM 78.8 °F - 73.4 °F 83% 29.83 in 6.2 mi East 9.2 mph - N/A   Scattered Clouds
4:00 AM 78.8 °F - 73.4 °F 83% 29.83 in 6.2 mi ESE 9.2 mph - N/A   Scattered Clouds
5:00 AM 78 °F - 74 °F 82% 29.86 in 16 mi ESE 5.8 mph - -   Partly Cloudy
5:00 AM 78.8 °F - 73.4 °F 83% 29.86 in 6.2 mi ESE 5.8 mph - N/A   Scattered Clouds
6:00 AM 77.0 °F - 73.4 °F 89% 29.89 in 6.2 mi ESE 5.8 mph - N/A   Scattered Clouds
7:00 AM 78.8 °F - 75.2 °F 89% 29.92 in 6.2 mi ESE 6.9 mph - N/A   Scattered Clouds
8:00 AM 82 °F - 76 °F 76% 29.94 in 16 mi East 9.2 mph - -   Mostly Cloudy
8:00 AM 82.4 °F 89.5 °F 75.2 °F 79% 29.95 in 6.2 mi East 9.2 mph - N/A   Scattered Clouds
9:00 AM 84.2 °F 92.3 °F 75.2 °F 74% 29.95 in 6.2 mi East 9.2 mph - N/A   Scattered Clouds
10:00 AM 87.8 °F 99.7 °F 77.0 °F 70% 29.98 in 6.2 mi East 8.1 mph - N/A   Scattered Clouds
11:00 AM 87 °F - 77 °F 65% 29.97 in 16 mi East 6.9 mph - -   Partly Cloudy
11:00 AM 87.8 °F 99.7 °F 77.0 °F 70% 29.95 in 6.2 mi East 8.1 mph - N/A   Scattered Clouds
12:00 PM 87.8 °F 99.7 °F 77.0 °F 70% 29.95 in 6.2 mi East 10.4 mph - N/A   Scattered Clouds
1:00 PM 87.8 °F 99.7 °F 77.0 °F 70% 29.92 in 6.2 mi East 10.4 mph - N/A   Scattered Clouds
2:00 PM 87.8 °F 99.7 °F 77.0 °F 70% 29.89 in 6.2 mi ENE 12.7 mph - N/A   Scattered Clouds
3:00 PM 87.8 °F 99.7 °F 77.0 °F 70% 29.89 in 6.2 mi East 11.5 mph - N/A   Scattered Clouds
4:00 PM 86.0 °F 96.9 °F 77.0 °F 74% 29.86 in 6.2 mi East 11.5 mph - N/A   Scattered Clouds
6:00 PM 82.4 °F 89.5 °F 75.2 °F 79% 29.86 in 6.2 mi East 11.5 mph - N/A   Partly Cloudy
7:00 PM 80.6 °F 86.2 °F 75.2 °F 84% 29.89 in 6.2 mi East 12.7 mph - N/A   Partly Cloudy
10:00 PM 80.6 °F 86.2 °F 75.2 °F 84% 29.95 in 6.2 mi East 12.7 mph - N/A   Partly Cloudy
11:00 PM 80 °F - 74 °F 79% 29.96 in 12 mi ESE 8.1 mph - -   Haze
11:00 PM 80.6 °F 86.2 °F 75.2 °F 84% 29.95 in 6.2 mi ESE 11.5 mph - N/A   Partly Cloudy